Regional Weather Roundup
Issued by NWS Northern Indiana

Home | Current Version | Previous Version | Graphics & Text | Print | Product List | Glossary On
Versions: 1 2 3 4 5 6 7 8 9 10 11 12 13 14 15 16 17 18 19 20 21 22 23 24 25 26 27 28 29 30 31 32 33 34 35 36 37 38 39 40 41 42 43 44 45 46 47 48 49 50
000
ASUS43 KIWX 290200
RWRIWX

KIWX WEATHER ROUNDUP
NATIONAL WEATHER SERVICE NORTHERN INDIANA
900 PM EST FRI NOV 28 2014

NOTE: "FAIR" INDICATES FEW OR NO CLOUDS BELOW 12,000 FEET WITH NO
SIGNIFICANT WEATHER AND/OR OBSTRUCTIONS TO VISIBILITY.

* THESE STATIONS ARE NOT UNDER NWS QUALITY CONTROL. THEY ALSO MAY NOT
  REPORT WEATHER SUCH AS PRECIPITATION OR FOG.

INZ001>027-290300-
NORTHERN INDIANA

CITY           SKY/WX    TMP DP  RH WIND       PRES   REMARKS
GARY*          CLOUDY    34  25  69 SE17      29.97F WCI  23
SOUTH BEND     CLOUDY    31  22  69 S16       30.01F WCI  20
GOSHEN         CLOUDY    29  20  69 S10       30.04F WCI  20
ANGOLA*        MOCLDY    27  19  74 S7        30.05F WCI  19
FORT WAYNE     MOCLDY    30  20  66 S10       30.09S WCI  21
PERU/GRISSOM   CLOUDY    30  26  83 S13       30.03F WCI  20

$$
INZ028>050-290300-
CENTRAL INDIANA

CITY           SKY/WX    TMP DP  RH WIND       PRES   REMARKS
LAFAYETTE      MOCLDY    32  24  72 S10       30.01F WCI  24
KOKOMO*        CLOUDY    30  21  69 S14       30.05F WCI  20
MUNCIE*        CLOUDY    31  18  58 S12       30.08S WCI  22
INDIANAPOLIS   MOCLDY    31  21  66 SE9       30.05F WCI  23

$$
MIZ043>046-050>051-056>058-064>065-071>073-077>080-290300-
SOUTHWEST LOWER MICHIGAN

CITY           SKY/WX    TMP DP  RH WIND       PRES   REMARKS
BATTLE CREEK   CLOUDY    29  19  66 S12       30.03F WCI  19
BENTON HARBOR  CLOUDY    29  21  72 SE10      29.99F WCI  20
COLDWATER*     MOCLDY    29  22  75 SE7       30.04F WCI  22
HILLSDALE*     MOCLDY    26  23  87 SE7       30.05F WCI  19
HOLLAND        CLOUDY    29  20  69 SE10      30.02F WCI  20
GRAND RAPIDS   CLOUDY    27  19  72 SE8       30.03F WCI  19
KALAMAZOO      MOCLDY    28  19  69 S7        30.03F WCI  21
STURGIS*       MOCLDY    28  21  74 S9        30.03F WCI  20
THREE RIVERS*  FAIR      30  21  70 S8        30.04F WCI  22

$$
OHZ001>008-015>018-024>025-290300-
NORTHWEST OHIO

CITY           SKY/WX    TMP DP  RH WIND       PRES   REMARKS
DEFIANCE       CLOUDY    30  20  66 S7        30.10F WCI  23
FINDLAY        CLOUDY    32  21  64 S16       30.10F WCI  21
TOLEDO EXPRESS CLOUDY    28  22  78 S3        30.10F
TOLEDO METCALF CLOUDY    29  23  78 SE7       30.12F WCI  22
LIMA           CLOUDY    32  20  61 S15G22    30.09F WCI  22

$$
AND FOR LAKE MICHIGAN COASTAL AND OPEN LAKE BUOY OBSERVATIONS

STATION/POSITION TEMP    WIND        PRES    VSBY  WAVE
                 AIR SEA DIR/SP/G                  HT/PER
                 (F)     (DEG/KT/KT) (MB)    (MI)  (FT/S)
CALUMET HARBOR    33     150/ 12/ 16 1013.1F
MICHIGAN CITY     30     130/ 16/ 21   N/A
SAINT JOSEPH      29     160/  3/  8 1017.3F
SOUTH LAKE BUOY   35 42  180/ 23/ 27 1015.5F         6/ 6

$$
&&


USA.gov is the U.S. government's official web portal to all federal, state and local government web resources and services.